Погода в Рабауле

Папуа-Новая Гвинея     4°11′48″S   152°10′25″E
темп.,
°C
ветер,
м/с
пор.,
м/с
влажн.,
%
обл.,
%
осадки,
мм/ч
давл.,
гПа
погр.,
м
26 июля, пн
пн2601:00+26ююз2280100 0.0 1010187
04:00+26ююз228099 0.8 1010168
07:00+26ююз2280100 0.1 1011174
10:00+27зюз127583 0.6 1011275
13:00+27с21745 0.5 1009362
16:00+28св11724 2.1 1009349
19:00+27в11731 1.3 1010346
22:00+27ююв33775 5.2 1012182
27 июля, вт
вт2701:00+26ю22833 1.1 1011181
04:00+25ю22813 1.4 1010212
07:00+25ю228197 0.0 1011211
10:00+27вюв23742 0.3 1012333
13:00+28в34691 0.0 1009465
16:00+29вюв44697 0.2 1009499
19:00+28ююв45745 0.7 1010327
22:00+26ю348019 0.9 1012187
28 июля, ср
ср2801:00+26ююз228010 0.3 1010143
04:00+25юз228097 0.3 1010177
07:00+26юз117756 0.0 1011171
10:00+27ссв107171 0.0 1011264
13:00+27с227635 0.1 1009256
16:00+28ююв227389 1.4 1009376
19:00+27юв2276100 1.8 1011116
22:00+27юв3377100 2.6 1012370
29 июля, чт
чт2901:00+26ююв228097 0.0 1010278
04:00+26ю118094 0.0 1010216
07:00+26ююз117996 0.1 1012236
10:00+26вюв117899 0.1 1012356
13:00+26ссв117857 0.0 1009224
16:00+27с217280 0.0 1009372
19:00+27вюв117074 0.0 1010410
22:00+27ююз217692 0.0 1011243
30 июля, пт
пт3001:00+26ю228221 0.1 1010222
04:00+25ю338377 0.6 1010217
07:00+26ю348199 0.4 1012264
10:00+28юв457146 0.4 1012628
13:00+28вюв557170 0.0 1009560
16:00+28юв67754 0.6 1008529
19:00+28юв677711 0.5 1010498
22:00+26ююв57822 0.6 1011407